Location: L'Union
(43.6635°N, 1.4699°E)
Time: 16:04:49
(UTC+02:00)

X-37B - Visible Passes

Search period start: 24 July 2021 00:00
Search period end: 03 August 2021 00:00
Orbit: 383 x 392 km, 45.0° (Epoch: 01 July)

Date Brightness Start Highest point End Pass type
(mag) Time Alt. Az. Time Alt. Az. Time Alt. Az.
30 Jul 2.9 05:51:20 10° S 05:53:21 16° SE 05:55:22 10° ESE visible
01 Aug 2.1 05:31:15 16° SSW 05:33:02 26° SSE 05:35:47 10° E visible
02 Aug 2.9 04:35:26 15° SE 04:35:26 15° SE 04:36:54 10° ESE visible
02 Aug 0.7 06:07:56 10° WSW 06:11:06 67° SSE 06:14:17 10° ENE visible
